Year,Month,Day,Hour,Minute,Value (Times are PST for windspeed in km/hr)
2011,07,07,00,00,10.20
2011,07,07,00,01,7.10
2011,07,07,00,02,5.70
2011,07,07,00,03,7.90
2011,07,07,00,04,4.80
2011,07,07,00,05,5.40
2011,07,07,00,06,3.00
2011,07,07,00,07,3.60
2011,07,07,00,08,5.40
2011,07,07,00,09,4.30
2011,07,07,00,10,2.90
2011,07,07,00,11,3.10
2011,07,07,00,12,1.30
2011,07,07,00,13,1.50
2011,07,07,00,14,2.30
2011,07,07,00,15,4.80
2011,07,07,00,16,3.50
2011,07,07,00,17,2.60
2011,07,07,00,18,3.10
2011,07,07,00,19,3.80
2011,07,07,00,20,3.80
2011,07,07,00,21,6.30
2011,07,07,00,22,4.30
2011,07,07,00,23,3.80
2011,07,07,00,24,2.30
2011,07,07,00,25,2.80
2011,07,07,00,26,2.80
2011,07,07,00,27,3.10
2011,07,07,00,28,2.60
2011,07,07,00,29,3.80
2011,07,07,00,30,5.30
2011,07,07,00,31,6.60
2011,07,07,00,32,2.90
2011,07,07,00,33,2.70
2011,07,07,00,34,3.00
2011,07,07,00,35,0.60
2011,07,07,00,36,2.00
2011,07,07,00,37,1.60
2011,07,07,00,38,8.10
2011,07,07,00,39,4.40
2011,07,07,00,40,3.40
2011,07,07,00,41,6.40
2011,07,07,00,42,5.00
2011,07,07,00,43,2.40
2011,07,07,00,44,5.20
2011,07,07,00,45,6.00
2011,07,07,00,46,2.50
2011,07,07,00,47,5.20
2011,07,07,00,48,7.20
2011,07,07,00,49,4.00
2011,07,07,00,50,3.90
2011,07,07,00,51,0.20
2011,07,07,00,52,0.70
2011,07,07,00,53,1.90
2011,07,07,00,54,1.50
2011,07,07,00,55,3.40
2011,07,07,00,56,1.00
2011,07,07,00,57,0.70
2011,07,07,00,58,1.30
2011,07,07,00,59,1.60
2011,07,07,01,00,2.00
2011,07,07,01,01,2.90
2011,07,07,01,02,1.50
2011,07,07,01,03,5.00
2011,07,07,01,04,2.50
2011,07,07,01,05,2.60
2011,07,07,01,06,1.30
2011,07,07,01,07,1.70
2011,07,07,01,08,3.10
2011,07,07,01,09,2.10
2011,07,07,01,10,3.70
2011,07,07,01,11,2.20
2011,07,07,01,12,3.40
2011,07,07,01,13,2.50
2011,07,07,01,14,4.00
2011,07,07,01,15,2.60
2011,07,07,01,16,2.00
2011,07,07,01,17,4.40
2011,07,07,01,18,8.20
2011,07,07,01,19,3.30
2011,07,07,01,20,5.00
2011,07,07,01,21,2.80
2011,07,07,01,22,3.90
2011,07,07,01,23,2.30
2011,07,07,01,24,3.60
2011,07,07,01,25,3.50
2011,07,07,01,26,4.30
2011,07,07,01,27,4.30
2011,07,07,01,28,2.50
2011,07,07,01,29,1.00
2011,07,07,01,30,0.60
2011,07,07,01,31,2.30
2011,07,07,01,32,1.10
2011,07,07,01,33,1.80
2011,07,07,01,34,4.10
2011,07,07,01,35,5.40
2011,07,07,01,36,1.60
2011,07,07,01,37,0.80
2011,07,07,01,38,0.00
2011,07,07,01,39,2.20
2011,07,07,01,40,3.30
2011,07,07,01,41,3.10
2011,07,07,01,42,2.40
2011,07,07,01,43,3.90
2011,07,07,01,44,5.10
2011,07,07,01,45,5.10
2011,07,07,01,46,7.30
2011,07,07,01,47,6.20
2011,07,07,01,48,3.00
2011,07,07,01,49,0.70
2011,07,07,01,50,2.00
2011,07,07,01,51,4.70
2011,07,07,01,52,8.00
2011,07,07,01,53,7.50
2011,07,07,01,54,7.40
2011,07,07,01,55,6.40
2011,07,07,01,56,3.80
2011,07,07,01,57,1.50
2011,07,07,01,58,4.50
2011,07,07,01,59,3.30
2011,07,07,02,00,4.40
2011,07,07,02,01,6.50
2011,07,07,02,02,6.00
2011,07,07,02,03,2.40
2011,07,07,02,04,4.50
2011,07,07,02,05,6.00
2011,07,07,02,06,3.30
2011,07,07,02,07,1.90
2011,07,07,02,08,2.50
2011,07,07,02,09,1.50
2011,07,07,02,10,2.80
2011,07,07,02,11,3.90
2011,07,07,02,12,4.60
2011,07,07,02,13,4.80
2011,07,07,02,14,5.60
2011,07,07,02,15,5.00
2011,07,07,02,16,3.50
2011,07,07,02,17,2.20
2011,07,07,02,18,0.50
2011,07,07,02,19,2.00
2011,07,07,02,20,3.10
2011,07,07,02,21,0.40
2011,07,07,02,22,0.40
2011,07,07,02,23,0.20
2011,07,07,02,24,1.20
2011,07,07,02,25,2.50
2011,07,07,02,26,4.30
2011,07,07,02,27,1.00
2011,07,07,02,28,0.30
2011,07,07,02,29,3.00
2011,07,07,02,30,1.90
2011,07,07,02,31,6.60
2011,07,07,02,32,9.90
2011,07,07,02,33,5.70
2011,07,07,02,34,4.30
2011,07,07,02,35,2.70
2011,07,07,02,36,4.20
2011,07,07,02,37,3.10
2011,07,07,02,38,8.70
2011,07,07,02,39,6.70
2011,07,07,02,40,3.20
2011,07,07,02,41,4.50
2011,07,07,02,42,5.20
2011,07,07,02,43,1.60
2011,07,07,02,44,4.50
2011,07,07,02,45,3.40
2011,07,07,02,46,3.50
2011,07,07,02,47,2.10
2011,07,07,02,48,3.20
2011,07,07,02,49,2.30
2011,07,07,02,50,5.70
2011,07,07,02,51,5.40
2011,07,07,02,52,4.10
2011,07,07,02,53,0.70
2011,07,07,02,54,1.90
2011,07,07,02,55,1.50
2011,07,07,02,56,2.20
2011,07,07,02,57,0.50
2011,07,07,02,58,1.20
2011,07,07,02,59,1.30
2011,07,07,03,00,1.70
2011,07,07,03,01,3.40
2011,07,07,03,02,1.10
2011,07,07,03,03,3.10
2011,07,07,03,04,2.90
2011,07,07,03,05,1.60
2011,07,07,03,06,5.30
2011,07,07,03,07,2.50
2011,07,07,03,08,2.90
2011,07,07,03,09,6.60
2011,07,07,03,10,6.30
2011,07,07,03,11,4.80
2011,07,07,03,12,5.90
2011,07,07,03,13,3.60
2011,07,07,03,14,1.80
2011,07,07,03,15,4.30
2011,07,07,03,16,4.90
2011,07,07,03,17,2.40
2011,07,07,03,18,3.80
2011,07,07,03,19,2.60
2011,07,07,03,20,1.60
2011,07,07,03,21,3.50
2011,07,07,03,22,4.30
2011,07,07,03,23,2.70
2011,07,07,03,24,4.00
2011,07,07,03,25,1.30
2011,07,07,03,26,1.70
2011,07,07,03,27,2.70
2011,07,07,03,28,8.00
2011,07,07,03,29,7.20
2011,07,07,03,30,4.40
2011,07,07,03,31,4.60
2011,07,07,03,32,0.10
2011,07,07,03,33,3.20
2011,07,07,03,34,2.90
2011,07,07,03,35,1.30
2011,07,07,03,36,4.30
2011,07,07,03,37,4.90
2011,07,07,03,38,6.20
2011,07,07,03,39,6.80
2011,07,07,03,40,7.80
2011,07,07,03,41,6.00
2011,07,07,03,42,4.30
2011,07,07,03,43,4.80
2011,07,07,03,44,2.50
2011,07,07,03,45,6.80
2011,07,07,03,46,4.40
2011,07,07,03,47,4.50
2011,07,07,03,48,5.80
2011,07,07,03,49,2.40
2011,07,07,03,50,3.10
2011,07,07,03,51,2.90
2011,07,07,03,52,1.60
2011,07,07,03,53,0.60
2011,07,07,03,54,1.20
2011,07,07,03,55,2.60
2011,07,07,03,56,0.90
2011,07,07,03,57,0.70
2011,07,07,03,58,0.90
2011,07,07,03,59,0.90
2011,07,07,04,00,2.20
2011,07,07,04,01,2.30
2011,07,07,04,02,1.50
2011,07,07,04,03,1.70
2011,07,07,04,04,0.10
2011,07,07,04,05,1.30
2011,07,07,04,06,2.70
2011,07,07,04,07,1.40
2011,07,07,04,08,2.20
2011,07,07,04,09,4.60
2011,07,07,04,10,4.10
2011,07,07,04,11,7.30
2011,07,07,04,12,4.90
2011,07,07,04,13,4.20
2011,07,07,04,14,5.50
2011,07,07,04,15,4.30
2011,07,07,04,16,6.30
2011,07,07,04,17,5.10
2011,07,07,04,18,5.00
2011,07,07,04,19,3.10
2011,07,07,04,20,2.10
2011,07,07,04,21,1.80
2011,07,07,04,22,1.20
2011,07,07,04,23,1.10
2011,07,07,04,24,2.70
2011,07,07,04,25,5.30
2011,07,07,04,26,1.60
2011,07,07,04,27,0.90
2011,07,07,04,28,1.00
2011,07,07,04,29,3.90
2011,07,07,04,30,7.60
2011,07,07,04,31,2.40
2011,07,07,04,32,1.80
2011,07,07,04,33,1.70
2011,07,07,04,34,1.80
2011,07,07,04,35,2.00
2011,07,07,04,36,5.00
2011,07,07,04,37,3.30
2011,07,07,04,38,0.40
2011,07,07,04,39,0.80
2011,07,07,04,40,2.40
2011,07,07,04,41,5.70
2011,07,07,04,42,3.70
2011,07,07,04,43,0.90
2011,07,07,04,44,4.30
2011,07,07,04,45,1.60
2011,07,07,04,46,3.00
2011,07,07,04,47,2.60
2011,07,07,04,48,3.20
2011,07,07,04,49,3.10
2011,07,07,04,50,3.80
2011,07,07,04,51,0.80
2011,07,07,04,52,0.70
2011,07,07,04,53,5.90
2011,07,07,04,54,5.10
2011,07,07,04,55,0.10
2011,07,07,04,56,0.20
2011,07,07,04,57,0.60
2011,07,07,04,58,2.00
2011,07,07,04,59,4.00
2011,07,07,05,00,3.10
2011,07,07,05,01,1.00
2011,07,07,05,02,0.20
2011,07,07,05,03,2.30
2011,07,07,05,04,4.30
2011,07,07,05,05,4.10
2011,07,07,05,06,3.10
2011,07,07,05,07,4.00
2011,07,07,05,08,4.50
2011,07,07,05,09,5.80
2011,07,07,05,10,2.80
2011,07,07,05,11,2.10
2011,07,07,05,12,2.60
2011,07,07,05,13,3.50
2011,07,07,05,14,4.70
2011,07,07,05,15,1.10
2011,07,07,05,16,2.20
2011,07,07,05,17,1.60
2011,07,07,05,18,1.70
2011,07,07,05,19,1.40
2011,07,07,05,20,3.50
2011,07,07,05,21,1.80
2011,07,07,05,22,1.00
2011,07,07,05,23,5.30
2011,07,07,05,24,5.40
2011,07,07,05,25,2.50
2011,07,07,05,26,4.80
2011,07,07,05,27,3.00
2011,07,07,05,28,2.10
2011,07,07,05,29,2.80
2011,07,07,05,30,1.10
2011,07,07,05,31,3.30
2011,07,07,05,32,1.00
2011,07,07,05,33,6.30
2011,07,07,05,34,2.10
2011,07,07,05,35,3.20
2011,07,07,05,36,4.90
2011,07,07,05,37,1.80
2011,07,07,05,38,5.70
2011,07,07,05,39,4.50
2011,07,07,05,40,2.80
2011,07,07,05,41,3.90
2011,07,07,05,42,3.40
2011,07,07,05,43,4.60
2011,07,07,05,44,2.70
2011,07,07,05,45,4.50
2011,07,07,05,46,8.30
2011,07,07,05,47,3.30
2011,07,07,05,48,2.80
2011,07,07,05,49,3.40
2011,07,07,05,50,6.10
2011,07,07,05,51,3.30
2011,07,07,05,52,3.80
2011,07,07,05,53,2.00
2011,07,07,05,54,3.40
2011,07,07,05,55,4.20
2011,07,07,05,56,4.80
2011,07,07,05,57,4.70
2011,07,07,05,58,5.20
2011,07,07,05,59,4.30
2011,07,07,06,00,4.20
2011,07,07,06,01,4.00
2011,07,07,06,02,2.00
2011,07,07,06,03,5.10
2011,07,07,06,04,2.20
2011,07,07,06,05,1.40
2011,07,07,06,06,5.50
2011,07,07,06,07,4.00
2011,07,07,06,08,0.80
2011,07,07,06,09,1.50
2011,07,07,06,10,0.50
2011,07,07,06,11,2.70
2011,07,07,06,12,1.00
2011,07,07,06,13,0.10
2011,07,07,06,14,1.40
2011,07,07,06,15,3.90
2011,07,07,06,16,0.80
2011,07,07,06,17,2.90
2011,07,07,06,18,2.30
2011,07,07,06,19,0.60
2011,07,07,06,20,3.60
2011,07,07,06,21,0.80
2011,07,07,06,22,2.50
2011,07,07,06,23,0.60
2011,07,07,06,24,2.40
2011,07,07,06,25,1.30
2011,07,07,06,26,0.10
2011,07,07,06,27,0.80
2011,07,07,06,28,5.30
2011,07,07,06,29,1.80
2011,07,07,06,30,1.30
2011,07,07,06,31,2.40
2011,07,07,06,32,4.30
2011,07,07,06,33,2.80
2011,07,07,06,34,4.60
2011,07,07,06,35,3.60
2011,07,07,06,36,2.10
2011,07,07,06,37,6.40
2011,07,07,06,38,4.40
2011,07,07,06,39,1.10
2011,07,07,06,40,0.60
2011,07,07,06,41,3.60
2011,07,07,06,42,2.30
2011,07,07,06,43,2.00
2011,07,07,06,44,1.50
2011,07,07,06,45,0.00
2011,07,07,06,46,0.00
2011,07,07,06,47,0.60
2011,07,07,06,48,0.40
2011,07,07,06,49,2.90
2011,07,07,06,50,2.90
2011,07,07,06,51,4.90
2011,07,07,06,52,3.00
2011,07,07,06,53,1.10
2011,07,07,06,54,0.20
2011,07,07,06,55,1.40
2011,07,07,06,56,1.50
2011,07,07,06,57,0.20
2011,07,07,06,58,3.30
2011,07,07,06,59,0.30
2011,07,07,07,00,0.80
2011,07,07,07,01,1.10
2011,07,07,07,02,0.10
2011,07,07,07,03,1.50
2011,07,07,07,04,0.50
2011,07,07,07,05,1.00
2011,07,07,07,06,0.00
2011,07,07,07,07,2.50
2011,07,07,07,08,2.00
2011,07,07,07,09,1.60
2011,07,07,07,10,1.20
2011,07,07,07,11,1.20
2011,07,07,07,12,4.40
2011,07,07,07,13,1.80
2011,07,07,07,14,1.90
2011,07,07,07,15,4.20
2011,07,07,07,16,1.90
2011,07,07,07,17,2.70
2011,07,07,07,18,1.70
2011,07,07,07,19,1.90
2011,07,07,07,20,1.70
2011,07,07,07,21,4.80
2011,07,07,07,22,1.70
2011,07,07,07,23,1.00
2011,07,07,07,24,0.60
2011,07,07,07,25,1.70
2011,07,07,07,26,0.50
2011,07,07,07,27,1.20
2011,07,07,07,28,2.60
2011,07,07,07,29,1.20
2011,07,07,07,30,0.00
2011,07,07,07,31,0.00
2011,07,07,07,32,0.10
2011,07,07,07,33,0.10
2011,07,07,07,34,0.90
2011,07,07,07,35,0.50
2011,07,07,07,36,0.10
2011,07,07,07,37,0.40
2011,07,07,07,38,2.10
2011,07,07,07,39,0.20
2011,07,07,07,40,2.50
2011,07,07,07,41,0.40
2011,07,07,07,42,0.20
2011,07,07,07,43,0.60
2011,07,07,07,44,0.00
2011,07,07,07,45,0.60
2011,07,07,07,46,1.50
2011,07,07,07,47,2.70
2011,07,07,07,48,1.70
2011,07,07,07,49,0.70
2011,07,07,07,50,1.00
2011,07,07,07,51,1.00
2011,07,07,07,52,3.60
2011,07,07,07,53,3.10
2011,07,07,07,54,3.80
2011,07,07,07,55,4.30
2011,07,07,07,56,4.40
2011,07,07,07,57,3.60
2011,07,07,07,58,3.40
2011,07,07,07,59,3.10
2011,07,07,08,00,7.40
2011,07,07,08,01,4.50
2011,07,07,08,02,6.40
2011,07,07,08,03,3.90
2011,07,07,08,04,5.20
2011,07,07,08,05,4.70
2011,07,07,08,06,4.40
2011,07,07,08,07,3.90
2011,07,07,08,08,3.60
2011,07,07,08,09,5.20
2011,07,07,08,10,2.40
2011,07,07,08,11,4.00
2011,07,07,08,12,2.40
2011,07,07,08,13,6.40
2011,07,07,08,14,5.00
2011,07,07,08,15,2.40
2011,07,07,08,16,7.20
2011,07,07,08,17,5.60
2011,07,07,08,18,6.50
2011,07,07,08,19,4.80
2011,07,07,08,20,2.10
2011,07,07,08,21,4.50
2011,07,07,08,22,8.80
2011,07,07,08,23,3.80
2011,07,07,08,24,4.50
2011,07,07,08,25,3.30
2011,07,07,08,26,5.60
2011,07,07,08,27,5.60
2011,07,07,08,28,0.60
2011,07,07,08,29,5.70
2011,07,07,08,30,7.00
2011,07,07,08,31,5.60
2011,07,07,08,32,3.20
2011,07,07,08,33,0.50
2011,07,07,08,34,4.10
2011,07,07,08,35,2.40
2011,07,07,08,36,3.80
2011,07,07,08,37,4.70
2011,07,07,08,38,5.20
2011,07,07,08,39,6.90
2011,07,07,08,40,1.10
2011,07,07,08,41,5.00
2011,07,07,08,42,2.10
2011,07,07,08,43,0.80
2011,07,07,08,44,2.10
2011,07,07,08,45,4.60
2011,07,07,08,46,7.30
2011,07,07,08,47,4.20
2011,07,07,08,48,5.00
2011,07,07,08,49,4.40
2011,07,07,08,50,4.80
2011,07,07,08,51,2.50
2011,07,07,08,52,3.20
2011,07,07,08,53,0.90
2011,07,07,08,54,8.90
2011,07,07,08,55,6.30
2011,07,07,08,56,10.60
2011,07,07,08,57,8.40
2011,07,07,08,58,8.60
2011,07,07,08,59,5.30
2011,07,07,09,00,2.20
2011,07,07,09,01,5.50
2011,07,07,09,02,1.30
2011,07,07,09,03,5.90
2011,07,07,09,04,6.00
2011,07,07,09,05,8.90
2011,07,07,09,06,12.50
2011,07,07,09,07,10.50
2011,07,07,09,08,8.10
2011,07,07,09,09,8.10
2011,07,07,09,10,5.90
2011,07,07,09,11,5.30
2011,07,07,09,12,4.50
2011,07,07,09,13,1.10
2011,07,07,09,14,1.80
2011,07,07,09,15,6.30
2011,07,07,09,16,9.70
2011,07,07,09,17,11.50
2011,07,07,09,18,6.90
2011,07,07,09,19,3.80
2011,07,07,09,20,6.20
2011,07,07,09,21,10.10
2011,07,07,09,22,8.20
2011,07,07,09,23,14.30
2011,07,07,09,24,11.30
2011,07,07,09,25,7.60
2011,07,07,09,26,6.70
2011,07,07,09,27,4.60
2011,07,07,09,28,14.90
2011,07,07,09,29,17.00
2011,07,07,09,30,18.10
2011,07,07,09,31,18.10
2011,07,07,09,32,20.50
2011,07,07,09,33,14.20
2011,07,07,09,34,15.30
2011,07,07,09,35,12.90
2011,07,07,09,36,11.30
2011,07,07,09,37,11.10
2011,07,07,09,38,10.70
2011,07,07,09,39,12.10
2011,07,07,09,40,13.30
2011,07,07,09,41,13.40
2011,07,07,09,42,10.50
2011,07,07,09,43,17.00
2011,07,07,09,44,13.00
2011,07,07,09,45,17.40
2011,07,07,09,46,16.70
2011,07,07,09,47,10.50
2011,07,07,09,48,12.80
2011,07,07,09,49,12.30
2011,07,07,09,50,10.10
2011,07,07,09,51,17.50
2011,07,07,09,52,13.10
2011,07,07,09,53,10.60
2011,07,07,09,54,5.80
2011,07,07,09,55,10.30
2011,07,07,09,56,8.70
2011,07,07,09,57,11.30
2011,07,07,09,58,6.70
2011,07,07,09,59,5.60
2011,07,07,10,00,19.10
2011,07,07,10,01,10.60
2011,07,07,10,02,9.90
2011,07,07,10,03,9.80
2011,07,07,10,04,13.10
2011,07,07,10,05,8.80
2011,07,07,10,06,11.40
2011,07,07,10,07,8.50
2011,07,07,10,08,9.80
2011,07,07,10,09,9.50
2011,07,07,10,10,7.50
2011,07,07,10,11,13.90
2011,07,07,10,12,12.00
2011,07,07,10,13,9.10
2011,07,07,10,14,7.10
2011,07,07,10,15,9.10
2011,07,07,10,16,15.70
2011,07,07,10,17,11.80
2011,07,07,10,18,12.60
2011,07,07,10,19,14.70
2011,07,07,10,20,16.30
2011,07,07,10,21,18.40
2011,07,07,10,22,24.50
2011,07,07,10,23,17.80
2011,07,07,10,24,18.80
2011,07,07,10,25,21.80
2011,07,07,10,26,12.50
2011,07,07,10,27,20.20
2011,07,07,10,28,21.80
2011,07,07,10,29,26.00
2011,07,07,10,30,14.70
2011,07,07,10,31,13.60
2011,07,07,10,32,14.20
2011,07,07,10,33,17.20
2011,07,07,10,34,17.60
2011,07,07,10,35,21.00
2011,07,07,10,36,17.00
2011,07,07,10,37,12.60
2011,07,07,10,38,19.30
2011,07,07,10,39,21.30
2011,07,07,10,40,20.30
2011,07,07,10,41,17.40
2011,07,07,10,42,13.80
2011,07,07,10,43,12.20
2011,07,07,10,44,16.50
2011,07,07,10,45,22.90
2011,07,07,10,46,22.60
2011,07,07,10,47,20.10
2011,07,07,10,48,19.50
2011,07,07,10,49,13.40
2011,07,07,10,50,14.30
2011,07,07,10,51,16.00
2011,07,07,10,52,15.80
2011,07,07,10,53,20.60
2011,07,07,10,54,17.30
2011,07,07,10,55,16.50
2011,07,07,10,56,15.40
2011,07,07,10,57,20.10
2011,07,07,10,58,24.50
2011,07,07,10,59,20.80
2011,07,07,11,00,17.40
2011,07,07,11,01,21.90
2011,07,07,11,02,17.00
2011,07,07,11,03,22.10
2011,07,07,11,04,20.90
2011,07,07,11,05,17.10
2011,07,07,11,06,16.30
2011,07,07,11,07,15.70
2011,07,07,11,08,15.00
2011,07,07,11,09,13.50
2011,07,07,11,10,14.80
2011,07,07,11,11,22.40
2011,07,07,11,12,16.80
2011,07,07,11,13,19.70
2011,07,07,11,14,11.50
2011,07,07,11,15,22.10
2011,07,07,11,16,17.60
2011,07,07,11,17,13.70
2011,07,07,11,18,15.40
2011,07,07,11,19,20.50
2011,07,07,11,20,16.00
2011,07,07,11,21,12.50
2011,07,07,11,22,19.50
2011,07,07,11,23,21.70
2011,07,07,11,24,13.40
2011,07,07,11,25,23.60
2011,07,07,11,26,12.80
2011,07,07,11,27,11.50
2011,07,07,11,28,14.80
2011,07,07,11,29,20.40
2011,07,07,11,30,23.00
2011,07,07,11,31,10.90
2011,07,07,11,32,14.30
2011,07,07,11,33,16.20
2011,07,07,11,34,12.70
2011,07,07,11,35,22.70
2011,07,07,11,36,18.40
2011,07,07,11,37,23.00
2011,07,07,11,38,19.00
2011,07,07,11,39,20.20
2011,07,07,11,40,17.30
2011,07,07,11,41,24.60
2011,07,07,11,42,18.80
2011,07,07,11,43,21.60
2011,07,07,11,44,30.70
2011,07,07,11,45,18.40
2011,07,07,11,46,18.80
2011,07,07,11,47,21.50
2011,07,07,11,48,23.30
2011,07,07,11,49,21.00
2011,07,07,11,50,21.80
2011,07,07,11,51,22.70
2011,07,07,11,52,22.50
2011,07,07,11,53,19.00
2011,07,07,11,54,19.70
2011,07,07,11,55,22.90
2011,07,07,11,56,12.90
2011,07,07,11,57,19.10
2011,07,07,11,58,17.80
2011,07,07,11,59,19.00
2011,07,07,12,00,15.60
2011,07,07,12,01,14.00
2011,07,07,12,02,19.20
2011,07,07,12,03,15.70
2011,07,07,12,04,12.70
2011,07,07,12,05,15.20
2011,07,07,12,06,15.30
2011,07,07,12,07,25.80
2011,07,07,12,08,24.40
2011,07,07,12,09,24.60
2011,07,07,12,10,20.60
2011,07,07,12,11,19.80
2011,07,07,12,12,23.30
2011,07,07,12,13,28.20
2011,07,07,12,14,20.90
2011,07,07,12,15,16.90
2011,07,07,12,16,24.20
2011,07,07,12,17,19.70
2011,07,07,12,18,20.00
2011,07,07,12,19,18.10
2011,07,07,12,20,19.50
2011,07,07,12,21,22.40
2011,07,07,12,22,20.50
2011,07,07,12,23,23.00
2011,07,07,12,24,28.60
2011,07,07,12,25,20.00
2011,07,07,12,26,13.10
2011,07,07,12,27,16.20
2011,07,07,12,28,29.60
2011,07,07,12,29,21.50
2011,07,07,12,30,23.20
2011,07,07,12,31,21.40
2011,07,07,12,32,21.70
2011,07,07,12,33,23.70
2011,07,07,12,34,29.70
2011,07,07,12,35,34.70
2011,07,07,12,36,20.00
2011,07,07,12,37,20.20
2011,07,07,12,38,16.50
2011,07,07,12,39,17.90
2011,07,07,12,40,13.90
2011,07,07,12,41,18.60
2011,07,07,12,42,21.60
2011,07,07,12,43,31.10
2011,07,07,12,44,22.00
2011,07,07,12,45,16.00
2011,07,07,12,46,21.90
2011,07,07,12,47,18.50
2011,07,07,12,48,17.80
2011,07,07,12,49,21.90
2011,07,07,12,50,22.70
2011,07,07,12,51,25.90
2011,07,07,12,52,24.40
2011,07,07,12,53,23.30
2011,07,07,12,54,22.40
2011,07,07,12,55,22.60
2011,07,07,12,56,24.90
2011,07,07,12,57,15.70
2011,07,07,12,58,12.50
2011,07,07,12,59,16.00
2011,07,07,13,00,18.70
2011,07,07,13,01,23.80
2011,07,07,13,02,28.10
2011,07,07,13,03,19.20
2011,07,07,13,04,23.00
2011,07,07,13,05,27.20
2011,07,07,13,06,23.50
2011,07,07,13,07,21.80
2011,07,07,13,08,13.40
2011,07,07,13,09,16.00
2011,07,07,13,10,21.50
2011,07,07,13,11,10.10
2011,07,07,13,12,12.70
2011,07,07,13,13,18.50
2011,07,07,13,14,25.90
2011,07,07,13,15,27.60
2011,07,07,13,16,24.40
2011,07,07,13,17,19.70
2011,07,07,13,18,18.10
2011,07,07,13,19,18.80
2011,07,07,13,20,28.20
2011,07,07,13,21,30.70
2011,07,07,13,22,18.00
2011,07,07,13,23,14.20
2011,07,07,13,24,16.40
2011,07,07,13,25,16.20
2011,07,07,13,26,23.10
2011,07,07,13,27,18.70
2011,07,07,13,28,20.80
2011,07,07,13,29,14.40
2011,07,07,13,30,9.00
2011,07,07,13,31,11.40
2011,07,07,13,32,10.70
2011,07,07,13,33,9.70
2011,07,07,13,34,13.70
2011,07,07,13,35,18.40
2011,07,07,13,36,20.40
2011,07,07,13,37,21.30
2011,07,07,13,38,27.40
2011,07,07,13,39,21.10
2011,07,07,13,40,15.20
2011,07,07,13,41,12.60
2011,07,07,13,42,17.00
2011,07,07,13,43,19.70
2011,07,07,13,44,23.30
2011,07,07,13,45,18.10
2011,07,07,13,46,18.50
2011,07,07,13,47,22.30
2011,07,07,13,48,17.40
2011,07,07,13,49,15.00
2011,07,07,13,50,14.80
2011,07,07,13,51,10.60
2011,07,07,13,52,19.90
2011,07,07,13,53,16.30
2011,07,07,13,54,20.80
2011,07,07,13,55,26.10
2011,07,07,13,56,18.80
2011,07,07,13,57,27.70
2011,07,07,13,58,27.80
2011,07,07,13,59,22.30
2011,07,07,14,00,22.50
2011,07,07,14,01,15.70
2011,07,07,14,02,15.60
2011,07,07,14,03,14.20
2011,07,07,14,04,23.00
2011,07,07,14,05,25.10
2011,07,07,14,06,25.10
2011,07,07,14,07,22.90
2011,07,07,14,08,19.10
2011,07,07,14,09,24.40
2011,07,07,14,10,24.30
2011,07,07,14,11,26.40
2011,07,07,14,12,21.00
2011,07,07,14,13,16.30
2011,07,07,14,14,19.30
2011,07,07,14,15,29.50
2011,07,07,14,16,16.70
2011,07,07,14,17,14.30
2011,07,07,14,18,23.30
2011,07,07,14,19,20.20
2011,07,07,14,20,26.20
2011,07,07,14,21,20.80
2011,07,07,14,22,22.00
2011,07,07,14,23,29.00
2011,07,07,14,24,19.10
2011,07,07,14,25,26.30
2011,07,07,14,26,22.20
2011,07,07,14,27,23.50
2011,07,07,14,28,27.50
2011,07,07,14,29,24.40
2011,07,07,14,30,15.30
2011,07,07,14,31,14.30
2011,07,07,14,32,14.90
2011,07,07,14,33,20.60
2011,07,07,14,34,16.20
2011,07,07,14,35,11.60
2011,07,07,14,36,20.80
2011,07,07,14,37,17.20
2011,07,07,14,38,20.50
2011,07,07,14,39,19.60
2011,07,07,14,40,9.10
2011,07,07,14,41,18.30
2011,07,07,14,42,14.30
2011,07,07,14,43,12.70
2011,07,07,14,44,18.90
2011,07,07,14,45,16.80
2011,07,07,14,46,14.80
2011,07,07,14,47,15.40
2011,07,07,14,48,15.20
2011,07,07,14,49,17.50
2011,07,07,14,50,27.80
2011,07,07,14,51,12.90
2011,07,07,14,52,25.50
2011,07,07,14,53,15.20
2011,07,07,14,54,20.80
2011,07,07,14,55,23.80
2011,07,07,14,56,25.10
2011,07,07,14,57,20.60
2011,07,07,14,58,22.90
2011,07,07,14,59,23.40
2011,07,07,15,00,18.40
2011,07,07,15,01,18.80
2011,07,07,15,02,25.50
2011,07,07,15,03,21.90
2011,07,07,15,04,25.50
2011,07,07,15,05,20.10
2011,07,07,15,06,22.90
2011,07,07,15,07,19.90
2011,07,07,15,08,21.40
2011,07,07,15,09,13.60
2011,07,07,15,10,13.90
2011,07,07,15,11,13.30
2011,07,07,15,12,25.90
2011,07,07,15,13,23.60
2011,07,07,15,14,10.60
2011,07,07,15,15,19.20
2011,07,07,15,16,18.20
2011,07,07,15,17,20.80
2011,07,07,15,18,18.10
2011,07,07,15,19,24.30
2011,07,07,15,20,19.80
2011,07,07,15,21,15.60
2011,07,07,15,22,18.00
2011,07,07,15,23,13.00
2011,07,07,15,24,23.60
2011,07,07,15,25,20.20
2011,07,07,15,26,19.80
2011,07,07,15,27,16.30
2011,07,07,15,28,21.40
2011,07,07,15,29,26.20
2011,07,07,15,30,18.50
2011,07,07,15,31,31.20
2011,07,07,15,32,19.60
2011,07,07,15,33,30.20
2011,07,07,15,34,26.50
2011,07,07,15,35,23.00
2011,07,07,15,36,24.30
2011,07,07,15,37,28.60
2011,07,07,15,38,26.00
2011,07,07,15,39,26.40
2011,07,07,15,40,33.60
2011,07,07,15,41,26.30
2011,07,07,15,42,30.40
2011,07,07,15,43,22.60
2011,07,07,15,44,28.40
2011,07,07,15,45,20.60
2011,07,07,15,46,33.30
2011,07,07,15,47,24.40
2011,07,07,15,48,26.40
2011,07,07,15,49,33.80
2011,07,07,15,50,27.00
2011,07,07,15,51,21.80
2011,07,07,15,52,20.20
2011,07,07,15,53,27.90
2011,07,07,15,54,25.40
2011,07,07,15,55,19.60
2011,07,07,15,56,27.70
2011,07,07,15,57,28.90
2011,07,07,15,58,24.40
2011,07,07,15,59,29.70
2011,07,07,16,00,31.30
2011,07,07,16,01,36.60
2011,07,07,16,02,33.80
2011,07,07,16,03,21.60
2011,07,07,16,04,24.60
2011,07,07,16,05,39.60
2011,07,07,16,06,32.20
2011,07,07,16,07,33.40
2011,07,07,16,08,24.80
2011,07,07,16,09,27.80
2011,07,07,16,10,29.60
2011,07,07,16,11,32.20
2011,07,07,16,12,26.90
2011,07,07,16,13,22.70
2011,07,07,16,14,26.80
2011,07,07,16,15,24.20
2011,07,07,16,16,27.20
2011,07,07,16,17,31.80
2011,07,07,16,18,27.50
2011,07,07,16,19,27.50
2011,07,07,16,20,32.90
2011,07,07,16,21,25.90
2011,07,07,16,22,28.30
2011,07,07,16,23,33.10
2011,07,07,16,24,32.60
2011,07,07,16,25,28.00
2011,07,07,16,26,30.70
2011,07,07,16,27,25.80
2011,07,07,16,28,35.10
2011,07,07,16,29,28.50
2011,07,07,16,30,36.40
2011,07,07,16,31,29.20
2011,07,07,16,32,28.40
2011,07,07,16,33,30.70
2011,07,07,16,34,27.20
2011,07,07,16,35,26.40
2011,07,07,16,36,30.70
2011,07,07,16,37,27.40
2011,07,07,16,38,21.40
2011,07,07,16,39,22.70
2011,07,07,16,40,22.40
2011,07,07,16,41,26.90
2011,07,07,16,42,32.10
2011,07,07,16,43,30.10
2011,07,07,16,44,23.60
2011,07,07,16,45,31.80
2011,07,07,16,46,36.50
2011,07,07,16,47,28.10
2011,07,07,16,48,22.00
2011,07,07,16,49,28.10
2011,07,07,16,50,25.80
2011,07,07,16,51,23.90
2011,07,07,16,52,18.20
2011,07,07,16,53,20.00
2011,07,07,16,54,21.70
2011,07,07,16,55,23.10
2011,07,07,16,56,30.00
2011,07,07,16,57,27.30
2011,07,07,16,58,25.00
2011,07,07,16,59,31.20
2011,07,07,17,00,24.30
2011,07,07,17,01,27.40
2011,07,07,17,02,26.10
2011,07,07,17,03,23.00
2011,07,07,17,04,30.00
2011,07,07,17,05,29.50
2011,07,07,17,06,25.50
2011,07,07,17,07,24.60
2011,07,07,17,08,29.40
2011,07,07,17,09,26.40
2011,07,07,17,10,22.40
2011,07,07,17,11,26.00
2011,07,07,17,12,16.20
2011,07,07,17,13,24.70
2011,07,07,17,14,25.60
2011,07,07,17,15,19.40
2011,07,07,17,16,33.00
2011,07,07,17,17,33.00
2011,07,07,17,18,31.90
2011,07,07,17,19,25.10
2011,07,07,17,20,28.20
2011,07,07,17,21,16.50
2011,07,07,17,22,17.10
2011,07,07,17,23,23.50
2011,07,07,17,24,27.10
2011,07,07,17,25,20.80
2011,07,07,17,26,23.70
2011,07,07,17,27,22.50
2011,07,07,17,28,17.70
2011,07,07,17,29,19.50
2011,07,07,17,30,18.90
2011,07,07,17,31,26.80
2011,07,07,17,32,17.60
2011,07,07,17,33,21.40
2011,07,07,17,34,29.80
2011,07,07,17,35,28.00
2011,07,07,17,36,22.70
2011,07,07,17,37,14.00
2011,07,07,17,38,19.20
2011,07,07,17,39,24.30
2011,07,07,17,40,27.50
2011,07,07,17,41,13.90
2011,07,07,17,42,21.70
2011,07,07,17,43,29.80
2011,07,07,17,44,22.60